Погода в Маршальском

Россия / Калининградская область     54°52′33″N   20°44′03″E
темп.,
°C
ветер,
м/с
пор.,
м/с
влажн.,
%
обл.,
%
осадки,
мм/ч
давл.,
гПа
погр.,
м
18 апреля, вс
вс1823:00+8всв448531 0.0 102123
02:00+7всв4490100 0.0 102131
05:00+6всв449335 0.0 102135
08:00+6всв459599 0.0 102165
11:00+8св348930 0.0 102296
14:00+9ссз4485100 0.1 102171
17:00+9с228699 1.2 102032
20:00+8зсз1191100 3.8 102121
19 апреля, пн
пн1923:00+9всв55843 0.3 102143
02:00+7всв56841 0.3 102145
05:00+6в46865 0.0 102153
08:00+6всв57855 0.0 102284
11:00+8св45805 0.0 102289
14:00+9ссв45736 0.0 1021146
17:00+9св5675100 0.0 102158
20:00+9всв557486 0.0 102129
20 апреля, вт
вт2023:00+8в44805 0.0 102137
02:00+6в448798 0.0 102032
05:00+6в339081 0.0 102025
08:00+6в338881 0.0 101942
11:00+6ссв2285100 0.1 101887
14:00+7ссз458670 0.1 1017103
17:00+7ссз578767 0.0 101594
20:00+7ссз57845 0.0 101480
21 апреля, ср
ср2123:00+6с34885 0.0 101351
02:00+5сз229248 0.0 101227
05:00+5зсз468990 0.0 101194
08:00+5зсз57875 0.0 1010141
11:00+6зсз46835 0.0 1010125
14:00+6зсз56825 0.0 1009140
17:00+7зсз46817 0.0 100898
20:00+7зюз338061 0.0 100737
22 апреля, чт
чт2223:00+4з101294100 0.3 1007617
02:00+4юз812881 1.4 1006741
05:00+4юз111580100 0.0 10051123
08:00+5юз13167785 0.4 10051287
11:00+4юз131694100 0.4 10061101
14:00+5зюз10127879 1.0 10081214
17:00+5з9137572 0.2 10081385
20:00+5зюз91373100 0.3 10081294